Location: Dover
(39.1580°N, 75.5250°W)
Time: 11:55:01
(UTC-04:00)

ISS - All Passes

Search period start: 01 August 2014 00:00
Search period end: 11 August 2014 00:00
Orbit: 411 x 419 km, 51.6° (Epoch: 01 August)

Date Brightness Start Highest point End Pass type
(mag) Time Alt. Az. Time Alt. Az. Time Alt. Az.
01 Aug - 01:20:18 10° NNW 01:21:24 11° N 01:22:29 10° N visible
01 Aug - 02:58:06 10° N 02:59:20 12° N 03:00:35 10° NNE visible
01 Aug - 04:33:46 10° NW 04:36:52 33° NNE 04:39:56 10° E visible
01 Aug - 06:10:36 10° WNW 06:13:30 27° SW 06:16:24 10° SSE daylight
01 Aug - 21:16:12 10° S 21:18:27 17° SE 21:20:43 10° E visible
01 Aug - 22:51:40 10° WSW 22:54:54 48° NW 22:58:09 10° NE visible
02 Aug - 00:30:33 10° NW 00:32:15 13° NNW 00:33:58 10° NNE visible
02 Aug - 02:09:39 10° N 02:10:10 10° N 02:10:42 10° NNE visible
02 Aug - 03:45:08 10° NNW 03:47:52 23° NNE 03:50:36 10° E visible
02 Aug - 05:21:29 10° WNW 05:24:46 51° SW 05:28:01 10° SE visible
02 Aug - 22:02:42 10° SW 22:06:01 85° NW 22:09:22 10° NE visible
02 Aug - 23:40:54 10° WNW 23:43:09 17° NNW 23:45:25 10° NNE visible
03 Aug - 02:56:32 10° NNW 02:58:49 17° NNE 03:01:06 10° ENE visible
03 Aug - 04:32:35 10° NW 04:35:57 86° NE 04:39:18 10° SE visible
03 Aug - 21:13:59 10° SW 21:17:12 50° SE 21:20:27 10° ENE visible
03 Aug - 22:51:23 10° W 22:54:05 22° NNW 22:56:49 10° NNE visible
04 Aug - 00:31:19 10° NNW 00:31:47 10° N 00:32:16 10° N visible
04 Aug - 02:07:59 10° NNW 02:09:42 13° NNE 02:11:26 10° NE visible
04 Aug - 03:43:47 10° NW 03:47:04 48° NE 03:50:19 10° ESE visible
04 Aug - 05:21:13 10° W 05:23:31 17° SW 05:25:48 10° S visible
04 Aug - 20:25:35 10° SSW 20:28:26 27° SE 20:31:19 10° ENE daylight
04 Aug - 22:02:02 10° W 22:05:05 33° NNW 22:08:09 10° NE visible
04 Aug - 23:41:24 10° NNW 23:42:36 12° N 23:43:49 10° N visible
05 Aug - 01:19:27 10° N 01:20:32 11° N 01:21:38 10° NNE visible
05 Aug - 02:55:05 10° NW 02:58:06 30° NNE 03:01:07 10° E night (unlit)
05 Aug - 04:31:47 10° WNW 04:34:48 31° SW 04:37:47 10° SSE visible
05 Aug - 19:37:44 10° SSE 19:39:44 15° SE 19:41:45 10° E daylight
05 Aug - 21:12:52 10° WSW 21:16:07 53° NW 21:19:25 10° NE visible
05 Aug - 22:51:37 10° NW 22:53:26 14° NNW 22:55:16 10° NNE visible
06 Aug - 00:31:04 10° N 00:31:20 10° N 00:31:36 10° N visible
06 Aug - 02:06:25 10° NNW 02:09:04 21° NNE 02:11:43 10° ENE night (unlit)
06 Aug - 03:42:42 10° WNW 03:46:00 58° SW 03:49:18 10° SE night (unlit)
06 Aug - 20:23:55 10° SW 20:27:14 85° SE 20:30:34 10° NE daylight
06 Aug - 22:01:58 10° WNW 22:04:19 18° NNW 22:06:40 10° NNE visible
07 Aug - 01:17:48 10° NNW 01:19:58 16° NNE 01:22:08 10° ENE visible
07 Aug - 02:53:47 10° NW 02:57:09 76° NE 03:00:29 10° SE night (unlit)
07 Aug - 04:32:33 10° WSW 04:33:24 11° SW 04:34:14 10° SW night (unlit)
07 Aug - 19:35:14 10° SSW 19:38:23 44° SE 19:41:35 10° ENE daylight
07 Aug - 21:12:27 10° W 21:15:14 24° NNW 21:18:01 10° NNE visible
07 Aug - 22:52:17 10° NNW 22:52:53 10° N 22:53:30 10° N visible
08 Aug - 00:29:13 10° NNW 00:30:49 13° NNE 00:32:24 10° NE visible
08 Aug - 02:04:59 10° NW 02:08:12 43° NNE 02:11:25 10° ESE night (unlit)
08 Aug - 03:42:13 10° W 03:44:42 19° SW 03:47:11 10° S night (unlit)
08 Aug - 18:46:53 10° S 18:49:37 24° SE 18:52:21 10° ENE daylight
08 Aug - 20:23:06 10° W 20:26:12 36° NNW 20:29:19 10° NE daylight
08 Aug - 22:02:21 10° NW 22:03:40 12° NNW 22:05:00 10° NNE visible
08 Aug - 23:40:41 10° N 23:41:36 11° N 23:42:32 10° NNE visible
09 Aug - 01:16:15 10° NNW 01:19:12 28° NNE 01:22:08 10° E visible
09 Aug - 02:52:51 10° WNW 02:55:56 35° SW 02:59:01 10° SSE night (unlit)
09 Aug - 17:59:12 10° SSE 18:00:53 13° SE 18:02:34 10° E daylight
09 Aug - 19:33:57 10° WSW 19:37:13 60° NW 19:40:31 10° NE daylight
09 Aug - 21:12:34 10° NW 21:14:29 14° NNW 21:16:25 10° NNE visible
10 Aug - 00:27:34 10° NNW 00:30:07 20° NNE 00:32:40 10° ENE visible
10 Aug - 02:03:46 10° WNW 02:07:06 67° SW 02:10:25 10° SE night (unlit)
10 Aug - 18:45:01 10° SW 18:48:18 74° SE 18:51:38 10° NE daylight
10 Aug - 20:22:54 10° WNW 20:25:20 19° NNW 20:27:47 10° NNE daylight
10 Aug - 23:38:56 10° NNW 23:40:59 15° NNE 23:43:01 10° NE visible
